| time (UTC) | temp F | wind direction | speed MPH | gust MPH | rain 1hr in | rain 24hr in | rain mn in | humidity % | barometer mb |
| 20260510170413 | 71 | 67 | 2.0 | 2.0 | 0.00 | 0.00 | 0.00 | 1012.1 | |
| 20260510170313 | 71 | 337 | 2.0 | 4.0 | 0.00 | 0.00 | 0.00 | 1012.1 | |
| 20260510165913 | 71 | 135 | 1.0 | 2.0 | 0.00 | 0.00 | 0.00 | 1011.9 | |
| 20260510165813 | 71 | 202 | 1.0 | 1.0 | 0.00 | 0.00 | 0.00 | 1011.9 | |
| 20260510165413 | 70 | 202 | 1.0 | 2.0 | 0.00 | 0.00 | 0.00 | 1012.0 | |
| 20260510165013 | 69 | 112 | 2.0 | 4.0 | 0.00 | 0.00 | 0.00 | 1012.2 | |
| 20260510164913 | 69 | 202 | 1.0 | 2.0 | 0.00 | 0.00 | 0.00 | 1012.1 | |
| 20260510164213 | 71 | 202 | 3.0 | 4.0 | 0.00 | 0.00 | 0.00 | 1012.2 | |
| 20260510163213 | 70 | 112 | 1.0 | 2.0 | 0.00 | 0.00 | 0.00 | 1012.0 | |
| 20260510163113 | 70 | 135 | 1.0 | 2.0 | 0.00 | 0.00 | 0.00 | 1012.0 | |
| 20260510162413 | 70 | 157 | 2.0 | 3.0 | 0.00 | 0.00 | 0.00 | 1012.1 | |
| 20260510162013 | 70 | 270 | 1.0 | 2.0 | 0.00 | 0.00 | 0.00 | 1012.1 | |
| 20260510161313 | 69 | 202 | 1.0 | 2.0 | 0.00 | 0.00 | 0.00 | 1011.8 | |
| 20260510154814 | 67 | 315 | 2.0 | 3.0 | 0.00 | 0.00 | 0.00 | 1011.8 | |
| 20260510154413 | 67 | 0 | 2.0 | 3.0 | 0.00 | 0.00 | 0.00 | 1012.0 | |
| 20260510153413 | 65 | 225 | 0.0 | 1.0 | 0.00 | 0.00 | 0.00 | 1012.1 | |
| 20260510153013 | 66 | 225 | 3.0 | 4.0 | 0.00 | 0.00 | 0.00 | 1012.0 | |
| 20260510152613 | 65 | 112 | 1.0 | 2.0 | 0.00 | 0.00 | 0.00 | 1012.0 | |
| 20260510152513 | 65 | 67 | 1.0 | 1.0 | 0.00 | 0.00 | 0.00 | 1012.0 | |
| 20260510152413 | 65 | 225 | 1.0 | 2.0 | 0.00 | 0.00 | 0.00 | 1012.0 | |
| 20260510152013 | 65 | 202 | 2.0 | 3.0 | 0.00 | 0.00 | 0.00 | 1011.8 | |
| 20260510151614 | 65 | 180 | 1.0 | 2.0 | 0.00 | 0.00 | 0.00 | 1011.6 | |
| 20260510151513 | 66 | 202 | 1.0 | 2.0 | 0.00 | 0.00 | 0.00 | 1011.9 | |
| 20260510151414 | 66 | 180 | 1.0 | 2.0 | 0.00 | 0.00 | 0.00 | 1011.8 | |
| 20260510151313 | 66 | 135 | 1.0 | 2.0 | 0.00 | 0.00 | 0.00 | 1011.8 | |
| 20260510150313 | 65 | 90 | 0.0 | 1.0 | 0.00 | 0.00 | 0.00 | 1011.8 | |
| 20260510145915 | 64 | 45 | 0.0 | 0.0 | 0.00 | 0.00 | 0.00 | 1011.8 | |
| 20260510145813 | 64 | 45 | 0.0 | 0.0 | 0.00 | 0.00 | 0.00 | 1011.8 | |
| 20260510145414 | 63 | 157 | 0.0 | 0.0 | 0.00 | 0.00 | 0.00 | 1011.8 | |
| 20260510145313 | 63 | 202 | 1.0 | 2.0 | 0.00 | 0.00 | 0.00 | 1012.0 | |
| 20260510144313 | 62 | 180 | 1.0 | 1.0 | 0.00 | 0.00 | 0.00 | 1011.8 | |
| 20260510144213 | 62 | 180 | 1.0 | 2.0 | 0.00 | 0.00 | 0.00 | 1011.9 | |
| 20260510144115 | 62 | 202 | 1.0 | 2.0 | 0.00 | 0.00 | 0.00 | 1011.9 | |
| 20260510144013 | 62 | 270 | 1.0 | 2.0 | 0.00 | 0.00 | 0.00 | 1012.1 | |
| 20260510143913 | 62 | 225 | 1.0 | 2.0 | 0.00 | 0.00 | 0.00 | 1011.8 | |
| 20260510143815 | 62 | 292 | 1.0 | 2.0 | 0.00 | 0.00 | 0.00 | 1011.7 | |
| 20260510143713 | 62 | 315 | 1.0 | 2.0 | 0.00 | 0.00 | 0.00 | 1011.9 | |
| 20260510142713 | 61 | 337 | 1.0 | 3.0 | 0.00 | 0.00 | 0.00 | 1011.8 | |
| 20260510142613 | 61 | 247 | 1.0 | 2.0 | 0.00 | 0.00 | 0.00 | 1011.8 | |
| 20260510141913 | 60 | 292 | 0.0 | 2.0 | 0.00 | 0.00 | 0.00 | 1011.7 | |
| 20260510141813 | 60 | 292 | 1.0 | 2.0 | 0.00 | 0.00 | 0.00 | 1012.0 | |
| 20260510141413 | 60 | 292 | 1.0 | 2.0 | 0.00 | 0.00 | 0.00 | 1012.0 | |
| 20260510141313 | 60 | 292 | 0.0 | 0.0 | 0.00 | 0.00 | 0.00 | 1012.1 | |
| 20260510140913 | 59 | 90 | 0.0 | 0.0 | 0.00 | 0.00 | 0.00 | 1011.8 | |
| 20260510140513 | 58 | 112 | 0.0 | 1.0 | 0.00 | 0.00 | 0.00 | 1011.8 | |
| 20260510140413 | 58 | 0 | 2.0 | 3.0 | 0.00 | 0.00 | 0.00 | 1011.8 | |
| 20260510140313 | 58 | 337 | 1.0 | 3.0 | 0.00 | 0.00 | 0.00 | 1011.9 | |
| 20260510135613 | 58 | 315 | 1.0 | 2.0 | 0.00 | 0.00 | 0.00 | 1011.6 | |
| 20260510135513 | 58 | 0 | 1.0 | 2.0 | 0.00 | 0.00 | 0.00 | 1011.9 | |
| 20260510135113 | 58 | 292 | 1.0 | 2.0 | 0.00 | 0.00 | 0.00 | 1011.6 | |
| 20260510135013 | 58 | 0 | 1.0 | 2.0 | 0.00 | 0.00 | 0.00 | 1011.5 | |
| 20260510134013 | 57 | 315 | 1.0 | 2.0 | 0.00 | 0.00 | 0.00 | 1011.3 | |
| 20260510133913 | 57 | 337 | 1.0 | 2.0 | 0.00 | 0.00 | 0.00 | 1011.5 | |
| 20260510133813 | 57 | 337 | 1.0 | 2.0 | 0.00 | 0.00 | 0.00 | 1011.5 | |
| 20260510132513 | 57 | 45 | 1.0 | 2.0 | 0.00 | 0.00 | 0.00 | 1011.6 | |
| 20260510132414 | 57 | 45 | 1.0 | 3.0 | 0.00 | 0.00 | 0.00 | 1011.4 | |
| 20260510132313 | 57 | 90 | 0.0 | 1.0 | 0.00 | 0.00 | 0.00 | 1011.5 | |
| 20260510132213 | 57 | 67 | 0.0 | 1.0 | 0.00 | 0.00 | 0.00 | 1011.3 | |
| 20260510132113 | 57 | 45 | 2.0 | 3.0 | 0.00 | 0.00 | 0.00 | 1011.5 | |
| 20260510132013 | 57 | 67 | 0.0 | 2.0 | 0.00 | 0.00 | 0.00 | 1011.3 | |
| 20260510131313 | 57 | 22 | 1.0 | 2.0 | 0.00 | 0.00 | 0.00 | 1011.0 | |
| 20260510130913 | 57 | 22 | 1.0 | 2.0 | 0.00 | 0.00 | 0.00 | 1011.3 | |
| 20260510124713 | 57 | 337 | 1.0 | 2.0 | 0.00 | 0.00 | 0.00 | 1011.0 | |
| 20260510123713 | 57 | 67 | 0.0 | 0.0 | 0.00 | 0.00 | 0.00 | 1011.0 | |
| 20260510123613 | 57 | 157 | 1.0 | 1.0 | 0.00 | 0.00 | 0.00 | 1011.2 | |
| 20260510122614 | 57 | 67 | 1.0 | 2.0 | 0.00 | 0.00 | 0.00 | 1011.5 | |
| 20260510121913 | 57 | 45 | 1.0 | 2.0 | 0.00 | 0.00 | 0.00 | 1011.0 | |
| 20260510121513 | 57 | 22 | 1.0 | 2.0 | 0.00 | 0.00 | 0.00 | 1011.1 | |
| 20260510121413 | 57 | 22 | 1.0 | 2.0 | 0.00 | 0.00 | 0.00 | 1011.5 | |
| 20260510121314 | 57 | 22 | 2.0 | 2.0 | 0.00 | 0.00 | 0.00 | 1011.1 | |
| 20260510120613 | 57 | 0 | 1.0 | 2.0 | 0.00 | 0.00 | 0.00 | 1011.2 | |
| 20260510120213 | 57 | 22 | 1.0 | 1.0 | 0.00 | 0.00 | 0.00 | 1010.9 | |
| 20260510120113 | 57 | 67 | 1.0 | 1.0 | 0.00 | 0.00 | 0.00 | 1011.1 | |
| 20260510120013 | 57 | 45 | 1.0 | 2.0 | 0.00 | 0.00 | 0.00 | 1011.1 | |
| 20260510115613 | 57 | 112 | 0.0 | 1.0 | 0.00 | 0.00 | 0.00 | 1011.0 | |
| 20260510115213 | 57 | 202 | 1.0 | 1.0 | 0.00 | 0.00 | 0.00 | 1011.0 | |
| 20260510114514 | 57 | 157 | 0.0 | 1.0 | 0.00 | 0.00 | 0.00 | 1011.0 | |
| 20260510113813 | 57 | 202 | 0.0 | 1.0 | 0.00 | 0.00 | 0.00 | 1011.0 | |
| 20260510113613 | 57 | 158 | 0.0 | 1.0 | 0.00 | 0.00 | 0.00 | 1010.9 | |
| 20260510113113 | 57 | 180 | 0.0 | 1.0 | 0.00 | 0.00 | 0.00 | 1011.0 | |
| 20260510113013 | 57 | 202 | 0.0 | 0.0 | 0.00 | 0.00 | 0.00 | 1011.0 | |
| 20260510112913 | 57 | 202 | 0.0 | 0.0 | 0.00 | 0.00 | 0.00 | 1011.1 | |
| 20260510112813 | 57 | 225 | 0.0 | 0.0 | 0.00 | 0.00 | 0.00 | 1010.9 | |
| 20260510112713 | 57 | 202 | 0.0 | 0.0 | 0.00 | 0.00 | 0.00 | 1010.9 | |
| 20260510112613 | 57 | 247 | 0.0 | 0.0 | 0.00 | 0.00 | 0.00 | 1010.9 | |
| 20260510112213 | 57 | 45 | 0.0 | 0.0 | 0.00 | 0.00 | 0.00 | 1011.0 | |
| 20260510111813 | 57 | 270 | 0.0 | 1.0 | 0.00 | 0.00 | 0.00 | 1011.0 | |
| 20260510110813 | 58 | 22 | 1.0 | 2.0 | 0.00 | 0.00 | 0.00 | 1011.0 | |
| 20260510110413 | 58 | 45 | 1.0 | 2.0 | 0.00 | 0.00 | 0.00 | 1010.9 | |
| 20260510104813 | 58 | 90 | 0.0 | 0.0 | 0.00 | 0.00 | 0.00 | 1011.1 | |
| 20260510104413 | 58 | 202 | 0.0 | 1.0 | 0.00 | 0.00 | 0.00 | 1011.2 | |
| 20260510104313 | 58 | 180 | 0.0 | 1.0 | 0.00 | 0.00 | 0.00 | 1011.1 | |
| 20260510104213 | 58 | 202 | 0.0 | 1.0 | 0.00 | 0.00 | 0.00 | 1011.1 | |
| 20260510103813 | 58 | 180 | 0.0 | 0.0 | 0.00 | 0.00 | 0.00 | 1011.1 | |
| 20260510103713 | 58 | 180 | 0.0 | 0.0 | 0.00 | 0.00 | 0.00 | 1011.1 | |
| 20260510102713 | 58 | 135 | 0.0 | 0.0 | 0.00 | 0.00 | 0.00 | 1011.2 | |
| 20260510102013 | 58 | 157 | 0.0 | 1.0 | 0.00 | 0.00 | 0.00 | 1011.2 | |
| 20260510101614 | 58 | 157 | 0.0 | 1.0 | 0.00 | 0.00 | 0.00 | 1011.3 | |
| 20260510101513 | 58 | 135 | 0.0 | 1.0 | 0.00 | 0.00 | 0.00 | 1011.1 | |
| 20260510101413 | 58 | 180 | 1.0 | 2.0 | 0.00 | 0.00 | 0.00 | 1011.3 | |
| 20260510101013 | 58 | 157 | 1.0 | 2.0 | 0.00 | 0.00 | 0.00 | 1011.3 | |
| 20260510100913 | 58 | 135 | 0.0 | 2.0 | 0.00 | 0.00 | 0.00 | 1011.3 | |
| 20260510100513 | 58 | 180 | 0.0 | 0.0 | 0.00 | 0.00 | 0.00 | 1011.1 | |
| 20260510100413 | 58 | 180 | 0.0 | 1.0 | 0.00 | 0.00 | 0.00 | 1011.3 | |
| 20260510100313 | 58 | 202 | 0.0 | 1.0 | 0.00 | 0.00 | 0.00 | 1011.2 | |
| 20260510095913 | 58 | 180 | 1.0 | 1.0 | 0.00 | 0.00 | 0.00 | 1011.2 | |
| 20260510095813 | 58 | 225 | 0.0 | 0.0 | 0.00 | 0.00 | 0.00 | 1011.2 | |
| 20260510095713 | 58 | 225 | 1.0 | 2.0 | 0.00 | 0.00 | 0.00 | 1011.2 | |
| 20260510095613 | 58 | 225 | 1.0 | 2.0 | 0.00 | 0.00 | 0.00 | 1011.2 | |
| 20260510095213 | 58 | 157 | 0.0 | 0.0 | 0.00 | 0.00 | 0.00 | 1011.1 | |
| 20260510095114 | 58 | 157 | 0.0 | 0.0 | 0.00 | 0.00 | 0.00 | 1011.1 | |
| 20260510094413 | 57 | 157 | 0.0 | 0.0 | 0.00 | 0.00 | 0.00 | 1011.2 | |
| 20260510094313 | 57 | 157 | 0.0 | 0.0 | 0.00 | 0.00 | 0.00 | 1011.2 | |
| 20260510094213 | 57 | 157 | 0.0 | 0.0 | 0.00 | 0.00 | 0.00 | 1011.4 | |
| 20260510094113 | 57 | 180 | 0.0 | 0.0 | 0.00 | 0.00 | 0.00 | 1011.1 | |
| 20260510093713 | 57 | 292 | 1.0 | 1.0 | 0.00 | 0.00 | 0.00 | 1011.3 | |
| 20260510093614 | 58 | 247 | 0.0 | 0.0 | 0.00 | 0.00 | 0.00 | 1011.3 | |
| 20260510093513 | 58 | 270 | 0.0 | 0.0 | 0.00 | 0.00 | 0.00 | 1011.3 | |
| 20260510092813 | 58 | 180 | 0.0 | 1.0 | 0.00 | 0.00 | 0.00 | 1011.3 | |
| 20260510092713 | 58 | 180 | 0.0 | 0.0 | 0.00 | 0.00 | 0.00 | 1011.2 | |
| 20260510092613 | 58 | 292 | 0.0 | 0.0 | 0.00 | 0.00 | 0.00 | 1011.1 | |
| 20260510092513 | 58 | 292 | 0.0 | 0.0 | 0.00 | 0.00 | 0.00 | 1011.3 | |
| 20260510092413 | 58 | 292 | 1.0 | 2.0 | 0.00 | 0.00 | 0.00 | 1011.3 | |
| 20260510092313 | 58 | 337 | 0.0 | 1.0 | 0.00 | 0.00 | 0.00 | 1011.2 | |
| 20260510091913 | 58 | 180 | 1.0 | 1.0 | 0.00 | 0.00 | 0.00 | 1011.2 | |
| 20260510091813 | 58 | 157 | 0.0 | 0.0 | 0.00 | 0.00 | 0.00 | 1011.2 | |
| 20260510091713 | 58 | 202 | 0.0 | 0.0 | 0.00 | 0.00 | 0.00 | 1011.2 | |
| 20260510091615 | 58 | 180 | 0.0 | 0.0 | 0.00 | 0.00 | 0.00 | 1011.3 | |
| 20260510091513 | 58 | 180 | 0.0 | 0.0 | 0.00 | 0.00 | 0.00 | 1011.3 | |
| 20260510091413 | 58 | 202 | 0.0 | 0.0 | 0.00 | 0.00 | 0.00 | 1011.3 | |
| 20260510091313 | 58 | 112 | 0.0 | 1.0 | 0.00 | 0.00 | 0.00 | 1011.3 | |
| 20260510090313 | 58 | 202 | 0.0 | 0.0 | 0.00 | 0.00 | 0.00 | 1011.4 | |
| 20260510090213 | 58 | 202 | 1.0 | 2.0 | 0.00 | 0.00 | 0.00 | 1011.3 | |
| 20260510090113 | 58 | 225 | 1.0 | 2.0 | 0.00 | 0.00 | 0.00 | 1011.4 | |
| 20260510085713 | 58 | 247 | 1.0 | 1.0 | 0.00 | 0.00 | 0.00 | 1011.4 | |
| 20260510085613 | 58 | 247 | 1.0 | 2.0 | 0.00 | 0.00 | 0.00 | 1011.4 | |
| 20260510085513 | 58 | 292 | 2.0 | 2.0 | 0.00 | 0.00 | 0.00 | 1011.4 | |
| 20260510085113 | 58 | 202 | 1.0 | 2.0 | 0.00 | 0.00 | 0.00 | 1011.4 | |
| 20260510084713 | 58 | 202 | 1.0 | 2.0 | 0.00 | 0.00 | 0.00 | 1011.4 | |
| 20260510084613 | 58 | 202 | 2.0 | 3.0 | 0.00 | 0.00 | 0.00 | 1011.3 | |
| 20260510084513 | 58 | 225 | 2.0 | 3.0 | 0.00 | 0.00 | 0.00 | 1011.4 | |
| 20260510084413 | 58 | 225 | 2.0 | 3.0 | 0.00 | 0.00 | 0.00 | 1011.3 | |
| 20260510084013 | 58 | 225 | 2.0 | 3.0 | 0.00 | 0.00 | 0.00 | 1011.3 | |
| 20260510083913 | 58 | 225 | 1.0 | 2.0 | 0.00 | 0.00 | 0.00 | 1011.3 | |
| 20260510083513 | 58 | 202 | 0.0 | 1.0 | 0.00 | 0.00 | 0.00 | 1011.4 | |
| 20260510083413 | 58 | 202 | 1.0 | 2.0 | 0.00 | 0.00 | 0.00 | 1011.4 | |
| 20260510083313 | 58 | 202 | 0.0 | 1.0 | 0.00 | 0.00 | 0.00 | 1011.4 | |
| 20260510083213 | 58 | 135 | 0.0 | 1.0 | 0.00 | 0.00 | 0.00 | 1011.4 | |
| 20260510082513 | 57 | 202 | 1.0 | 2.0 | 0.00 | 0.00 | 0.00 | 1011.3 | |
| 20260510082413 | 57 | 225 | 1.0 | 2.0 | 0.00 | 0.00 | 0.00 | 1011.4 | |
| 20260510082313 | 57 | 202 | 1.0 | 2.0 | 0.00 | 0.00 | 0.00 | 1011.2 | |
| 20260510082213 | 57 | 180 | 3.0 | 3.0 | 0.00 | 0.00 | 0.00 | 1011.5 | |
| 20260510082113 | 57 | 225 | 2.0 | 4.0 | 0.00 | 0.00 | 0.00 | 1011.4 | |
| 20260510082013 | 57 | 225 | 2.0 | 3.0 | 0.00 | 0.00 | 0.00 | 1011.4 | |
| 20260510081913 | 57 | 225 | 3.0 | 4.0 | 0.00 | 0.00 | 0.00 | 1011.6 | |
| 20260510081813 | 57 | 225 | 2.0 | 3.0 | 0.00 | 0.00 | 0.00 | 1011.6 | |
| 20260510081713 | 57 | 202 | 1.0 | 3.0 | 0.00 | 0.00 | 0.00 | 1011.6 | |
| 20260510081313 | 57 | 180 | 1.0 | 2.0 | 0.00 | 0.00 | 0.00 | 1011.6 | |
| 20260510081213 | 57 | 202 | 1.0 | 2.0 | 0.00 | 0.00 | 0.00 | 1011.7 | |
| 20260510080813 | 57 | 157 | 1.0 | 3.0 | 0.00 | 0.00 | 0.00 | 1011.6 | |
| 20260510080413 | 57 | 202 | 1.0 | 1.0 | 0.00 | 0.00 | 0.00 | 1011.6 | |
| 20260510080314 | 57 | 225 | 1.0 | 3.0 | 0.00 | 0.00 | 0.00 | 1011.7 | |
| 20260510075313 | 57 | 202 | 1.0 | 2.0 | 0.00 | 0.00 | 0.00 | 1011.7 | |
| 20260510075213 | 57 | 225 | 1.0 | 3.0 | 0.00 | 0.00 | 0.00 | 1011.6 | |
| 20260510075113 | 57 | 225 | 1.0 | 1.0 | 0.00 | 0.00 | 0.00 | 1011.6 | |
| 20260510075013 | 57 | 202 | 1.0 | 1.0 | 0.00 | 0.00 | 0.00 | 1011.7 | |
| 20260510074613 | 57 | 225 | 1.0 | 2.0 | 0.00 | 0.00 | 0.00 | 1011.7 | |
| 20260510073913 | 57 | 247 | 2.0 | 2.0 | 0.00 | 0.00 | 0.00 | 1011.8 | |
| 20260510073813 | 57 | 225 | 2.0 | 2.0 | 0.00 | 0.00 | 0.00 | 1011.5 | |
| 20260510073413 | 57 | 202 | 1.0 | 2.0 | 0.00 | 0.00 | 0.00 | 1011.6 | |
| 20260510073313 | 57 | 225 | 1.0 | 2.0 | 0.00 | 0.00 | 0.00 | 1011.6 | |
| 20260510072913 | 57 | 180 | 1.0 | 1.0 | 0.00 | 0.00 | 0.00 | 1011.7 | |
| 20260510072813 | 57 | 225 | 1.0 | 2.0 | 0.00 | 0.00 | 0.00 | 1011.8 | |
| 20260510072113 | 57 | 202 | 0.0 | 0.0 | 0.00 | 0.00 | 0.00 | 1011.6 | |
| 20260510072013 | 57 | 157 | 0.0 | 0.0 | 0.00 | 0.00 | 0.00 | 1011.8 | |
| 20260510071013 | 57 | 157 | 0.0 | 0.0 | 0.00 | 0.00 | 0.00 | 1011.6 | |
| 20260510070313 | 57 | 180 | 0.0 | 1.0 | 0.00 | 0.00 | 0.00 | 1011.7 | |
| 20260510065913 | 58 | 180 | 0.0 | 1.0 | 0.00 | 0.00 | 0.00 | 1011.5 | |
| 20260510065813 | 58 | 157 | 0.0 | 1.0 | 0.00 | 0.00 | 0.00 | 1011.5 | |
| 20260510064213 | 58 | 225 | 1.0 | 2.0 | 0.00 | 0.00 | 0.00 | 1011.8 | |
| 20260510064113 | 58 | 202 | 1.0 | 2.0 | 0.00 | 0.00 | 0.00 | 1011.6 | |
| 20260510064014 | 58 | 202 | 1.0 | 2.0 | 0.00 | 0.00 | 0.00 | 1011.7 | |
| 20260510063613 | 58 | 157 | 1.0 | 2.0 | 0.00 | 0.00 | 0.00 | 1011.6 | |
| 20260510063213 | 58 | 180 | 1.0 | 2.0 | 0.00 | 0.00 | 0.00 | 1011.5 | |
| 20260510062813 | 58 | 225 | 1.0 | 3.0 | 0.00 | 0.00 | 0.00 | 1011.4 | |
| 20260510062713 | 58 | 225 | 2.0 | 3.0 | 0.00 | 0.00 | 0.00 | 1011.5 | |
| 20260510062313 | 58 | 180 | 0.0 | 0.0 | 0.00 | 0.00 | 0.00 | 1011.5 | |
| 20260510062213 | 58 | 180 | 1.0 | 2.0 | 0.00 | 0.00 | 0.00 | 1011.5 | |
| 20260510061213 | 59 | 202 | 0.0 | 1.0 | 0.00 | 0.00 | 0.00 | 1011.5 | |
| 20260510060814 | 59 | 202 | 0.0 | 1.0 | 0.00 | 0.00 | 0.00 | 1011.5 | |
| 20260510060414 | 59 | 180 | 1.0 | 1.0 | 0.00 | 0.00 | 0.00 | 1011.6 | |
| 20260510060313 | 59 | 225 | 1.0 | 2.0 | 0.00 | 0.00 | 0.00 | 1011.5 | |
| 20260510060214 | 59 | 247 | 1.0 | 2.0 | 0.00 | 0.00 | 0.00 | 1011.5 | |
| 20260510055213 | 59 | 135 | 0.0 | 1.0 | 0.00 | 0.00 | 0.00 | 1011.5 | |
| 20260510055113 | 59 | 225 | 1.0 | 1.0 | 0.00 | 0.00 | 0.00 | 1011.5 | |
| 20260510055013 | 59 | 180 | 0.0 | 1.0 | 0.00 | 0.00 | 0.00 | 1011.6 | |
| 20260510054913 | 59 | 180 | 0.0 | 1.0 | 0.00 | 0.00 | 0.00 | 1011.4 | |
| 20260510054813 | 59 | 157 | 1.0 | 2.0 | 0.00 | 0.00 | 0.00 | 1011.5 | |
| 20260510054113 | 60 | 180 | 0.0 | 1.0 | 0.00 | 0.00 | 0.00 | 1011.6 | |
| 20260510053413 | 60 | 180 | 1.0 | 2.0 | 0.00 | 0.00 | 0.00 | 1011.7 | |
| 20260510053013 | 60 | 202 | 1.0 | 2.0 | 0.00 | 0.00 | 0.00 | 1011.8 | |
| 20260510052914 | 60 | 225 | 2.0 | 3.0 | 0.00 | 0.00 | 0.00 | 1011.6 | |
| 20260510052513 | 60 | 225 | 0.0 | 1.0 | 0.00 | 0.00 | 0.00 | 1011.8 | |
| 20260510052413 | 60 | 157 | 1.0 | 2.0 | 0.00 | 0.00 | 0.00 | 1011.8 | |
| 20260510052313 | 60 | 180 | 1.0 | 2.0 | 0.00 | 0.00 | 0.00 | 1011.7 | |
| 20260510052216 | 60 | 202 | 1.0 | 1.0 | 0.00 | 0.00 | 0.00 | 1011.7 | |
| 20260510051213 | 61 | 180 | 1.0 | 2.0 | 0.00 | 0.00 | 0.00 | 1011.6 | |
| 20260510045914 | 61 | 180 | 1.0 | 4.0 | 0.00 | 0.00 | 0.00 | 1011.9 | |
| 20260510045813 | 61 | 225 | 1.0 | 2.0 | 0.00 | 0.00 | 0.00 | 1011.8 | |
| 20260510045713 | 61 | 202 | 1.0 | 2.0 | 0.00 | 0.00 | 0.00 | 1011.7 | |
| 20260510045314 | 61 | 180 | 2.0 | 3.0 | 0.00 | 0.00 | 0.00 | 1011.8 | |
| 20260510045213 | 62 | 202 | 1.0 | 2.0 | 0.00 | 0.00 | 0.00 | 1011.5 | |
| 20260510045113 | 62 | 180 | 1.0 | 2.0 | 0.00 | 0.00 | 0.00 | 1011.7 | |
| 20260510044413 | 62 | 202 | 2.0 | 4.0 | 0.00 | 0.00 | 0.00 | 1011.6 | |
| 20260510044313 | 62 | 202 | 2.0 | 4.0 | 0.00 | 0.00 | 0.00 | 1011.6 | |
| 20260510043913 | 62 | 202 | 3.0 | 4.0 | 0.00 | 0.00 | 0.00 | 1011.6 | |
| 20260510043813 | 62 | 202 | 1.0 | 1.0 | 0.00 | 0.00 | 0.00 | 1011.5 | |
| 20260510043714 | 62 | 202 | 1.0 | 2.0 | 0.00 | 0.00 | 0.00 | 1011.6 | |
| 20260510042113 | 63 | 157 | 1.0 | 1.0 | 0.00 | 0.00 | 0.00 | 1011.3 | |
| 20260510042013 | 63 | 202 | 1.0 | 1.0 | 0.00 | 0.00 | 0.00 | 1011.6 | |
| 20260510041913 | 63 | 157 | 1.0 | 3.0 | 0.00 | 0.00 | 0.00 | 1011.3 | |
| 20260510041813 | 63 | 202 | 1.0 | 2.0 | 0.00 | 0.00 | 0.00 | 1011.3 | |
| 20260510040513 | 64 | 225 | 3.0 | 5.0 | 0.00 | 0.00 | 0.00 | 1011.0 | |
| 20260510040413 | 64 | 202 | 3.0 | 5.0 | 0.00 | 0.00 | 0.00 | 1011.2 | |
| 20260510040313 | 64 | 225 | 2.0 | 4.0 | 0.00 | 0.00 | 0.00 | 1011.0 | |
| 20260510040213 | 64 | 202 | 3.0 | 4.0 | 0.00 | 0.00 | 0.00 | 1011.0 | |
| 20260510034913 | 65 | 225 | 1.0 | 3.0 | 0.00 | 0.00 | 0.00 | 1010.9 | |
| 20260510034213 | 65 | 202 | 3.0 | 5.0 | 0.00 | 0.00 | 0.00 | 1010.9 | |
| 20260510034113 | 65 | 180 | 2.0 | 3.0 | 0.00 | 0.00 | 0.00 | 1010.8 | |
| 20260510033713 | 66 | 225 | 3.0 | 4.0 | 0.00 | 0.00 | 0.00 | 1010.8 | |
| 20260510033313 | 66 | 202 | 4.0 | 6.0 | 0.00 | 0.00 | 0.00 | 1010.9 | |
| 20260510033213 | 66 | 180 | 2.0 | 3.0 | 0.00 | 0.00 | 0.00 | 1010.5 | |
| 20260510033113 | 66 | 202 | 4.0 | 6.0 | 0.00 | 0.00 | 0.00 | 1010.6 | |
| 20260510033013 | 66 | 202 | 2.0 | 4.0 | 0.00 | 0.00 | 0.00 | 1010.7 | |
| 20260510032313 | 67 | 202 | 2.0 | 3.0 | 0.00 | 0.00 | 0.00 | 1010.6 | |
| 20260510032213 | 67 | 202 | 2.0 | 3.0 | 0.00 | 0.00 | 0.00 | 1010.5 | |
| 20260510032113 | 67 | 180 | 2.0 | 3.0 | 0.00 | 0.00 | 0.00 | 1010.7 | |
| 20260510032013 | 67 | 202 | 1.0 | 4.0 | 0.00 | 0.00 | 0.00 | 1010.5 | |
| 20260510031313 | 68 | 225 | 2.0 | 4.0 | 0.00 | 0.00 | 0.00 | 1010.4 | |
| 20260510031213 | 68 | 202 | 3.0 | 4.0 | 0.00 | 0.00 | 0.00 | 1010.2 | |
| 20260510031113 | 68 | 180 | 2.0 | 3.0 | 0.00 | 0.00 | 0.00 | 1010.4 | |
| 20260510030713 | 68 | 202 | 2.0 | 5.0 | 0.00 | 0.00 | 0.00 | 1010.2 | |
| 20260510030613 | 68 | 225 | 3.0 | 4.0 | 0.00 | 0.00 | 0.00 | 1010.1 | |
| 20260510025913 | 68 | 157 | 2.0 | 4.0 | 0.00 | 0.00 | 0.00 | 1010.0 | |
| 20260510025814 | 68 | 180 | 1.0 | 2.0 | 0.00 | 0.00 | 0.00 | 1010.0 | |
| 20260510025413 | 68 | 225 | 2.0 | 5.0 | 0.00 | 0.00 | 0.00 | 1010.1 | |
| 20260510025313 | 68 | 225 | 2.0 | 3.0 | 0.00 | 0.00 | 0.00 | 1010.2 | |
| 20260510024913 | 68 | 202 | 1.0 | 3.0 | 0.00 | 0.00 | 0.00 | 1010.0 | |
| 20260510024813 | 68 | 180 | 2.0 | 4.0 | 0.00 | 0.00 | 0.00 | 1010.1 | |
| 20260510024413 | 69 | 202 | 1.0 | 2.0 | 0.00 | 0.00 | 0.00 | 1010.1 | |
| 20260510024313 | 69 | 180 | 1.0 | 4.0 | 0.00 | 0.00 | 0.00 | 1009.8 | |
| 20260510024214 | 69 | 180 | 3.0 | 5.0 | 0.00 | 0.00 | 0.00 | 1009.9 | |
| 20260510024113 | 69 | 225 | 3.0 | 5.0 | 0.00 | 0.00 | 0.00 | 1010.0 | |
| 20260510023413 | 69 | 270 | 3.0 | 5.0 | 0.00 | 0.00 | 0.00 | 1010.0 | |
| 20260510023313 | 70 | 180 | 3.0 | 5.0 | 0.00 | 0.00 | 0.00 | 1009.8 | |
| 20260510023213 | 70 | 225 | 2.0 | 2.0 | 0.00 | 0.00 | 0.00 | 1009.8 | |
| 20260510022813 | 70 | 225 | 2.0 | 3.0 | 0.00 | 0.00 | 0.00 | 1009.8 | |
| 20260510021513 | 71 | 225 | 4.0 | 6.0 | 0.00 | 0.00 | 0.00 | 1009.8 | |
| 20260510021413 | 71 | 225 | 4.0 | 5.0 | 0.00 | 0.00 | 0.00 | 1009.7 | |
| 20260510021013 | 71 | 202 | 5.0 | 7.0 | 0.00 | 0.00 | 0.00 | 1009.6 | |
| 20260510020913 | 71 | 202 | 4.0 | 6.0 | 0.00 | 0.00 | 0.00 | 1009.7 | |
| 20260510020814 | 71 | 157 | 2.0 | 4.0 | 0.00 | 0.00 | 0.00 | 1009.7 | |
| 20260510020713 | 71 | 225 | 3.0 | 4.0 | 0.00 | 0.00 | 0.00 | 1009.6 | |
| 20260510020014 | 72 | 180 | 4.0 | 6.0 | 0.00 | 0.00 | 0.00 | 1009.6 | |
| 20260510015913 | 72 | 225 | 3.0 | 5.0 | 0.00 | 0.00 | 0.00 | 1009.6 | |
| 20260510015513 | 72 | 225 | 2.0 | 4.0 | 0.00 | 0.00 | 0.00 | 1009.6 | |
| 20260510015113 | 72 | 180 | 2.0 | 3.0 | 0.00 | 0.00 | 0.00 | 1009.6 | |
| 20260510014413 | 73 | 202 | 2.0 | 6.0 | 0.00 | 0.00 | 0.00 | 1009.4 | |
| 20260510012513 | 74 | 225 | 3.0 | 5.0 | 0.00 | 0.00 | 0.00 | 1009.4 | |
| 20260510012414 | 74 | 202 | 1.0 | 2.0 | 0.00 | 0.00 | 0.00 | 1009.5 | |
| 20260510012313 | 74 | 225 | 5.0 | 7.0 | 0.00 | 0.00 | 0.00 | 1009.6 | |
| 20260510011013 | 75 | 247 | 3.0 | 6.0 | 0.00 | 0.00 | 0.00 | 1009.6 | |
| 20260510010313 | 75 | 180 | 2.0 | 4.0 | 0.00 | 0.00 | 0.00 | 1009.5 | |
| 20260510005913 | 76 | 225 | 2.0 | 4.0 | 0.00 | 0.00 | 0.00 | 1009.4 | |
| 20260510005813 | 76 | 225 | 3.0 | 6.0 | 0.00 | 0.00 | 0.00 | 1009.5 | |
| 20260510005413 | 76 | 180 | 4.0 | 7.0 | 0.00 | 0.00 | 0.00 | 1009.5 | |
| 20260510005013 | 76 | 180 | 3.0 | 4.0 | 0.00 | 0.00 | 0.00 | 1009.3 | |
| 20260510004013 | 77 | 202 | 4.0 | 7.0 | 0.00 | 0.00 | 0.00 | 1009.3 | |
| 20260510003613 | 77 | 225 | 4.0 | 6.0 | 0.00 | 0.00 | 0.00 | 1009.2 | |
| 20260510003514 | 77 | 247 | 3.0 | 5.0 | 0.00 | 0.00 | 0.00 | 1009.2 | |
| 20260510003413 | 77 | 225 | 5.0 | 6.0 | 0.00 | 0.00 | 0.00 | 1009.2 | |
| 20260510002413 | 78 | 202 | 4.0 | 8.0 | 0.00 | 0.00 | 0.00 | 1009.3 | |
| 20260510002313 | 78 | 202 | 3.0 | 7.0 | 0.00 | 0.00 | 0.00 | 1009.5 | |
| 20260510002213 | 78 | 157 | 4.0 | 8.0 | 0.00 | 0.00 | 0.00 | 1009.4 | |
| 20260510001813 | 79 | 157 | 5.0 | 6.0 | 0.00 | 0.00 | 0.00 | 1009.3 | |
| 20260510001413 | 79 | 225 | 4.0 | 6.0 | 0.00 | 0.00 | 0.00 | 1009.3 | |
| 20260510001313 | 80 | 202 | 5.0 | 6.0 | 0.00 | 0.00 | 0.00 | 1009.2 | |
| 20260510000913 | 80 | 157 | 4.0 | 7.0 | 0.00 | 0.00 | 0.00 | 1009.4 | |
| 20260510000213 | 81 | 202 | 3.0 | 8.0 | 0.00 | 0.00 | 0.00 | 1009.3 | |
| 20260509235813 | 81 | 225 | 6.0 | 10.0 | 0.00 | 0.00 | 0.00 | 1009.4 | |
| 20260509235413 | 81 | 247 | 6.0 | 8.0 | 0.00 | 0.00 | 0.00 | 1009.3 | |
| 20260509235013 | 81 | 180 | 2.0 | 3.0 | 0.00 | 0.00 | 0.00 | 1009.3 | |
| 20260509233713 | 82 | 225 | 7.0 | 9.0 | 0.00 | 0.00 | 0.00 | 1009.3 | |
| 20260509232713 | 83 | 202 | 6.0 | 10.0 | 0.00 | 0.00 | 0.00 | 1009.3 | |
| 20260509232613 | 83 | 225 | 3.0 | 4.0 | 0.00 | 0.00 | 0.00 | 1009.1 | |
| 20260509232213 | 83 | 157 | 3.0 | 6.0 | 0.00 | 0.00 | 0.00 | 1009.2 | |
| 20260509231213 | 84 | 202 | 4.0 | 8.0 | 0.00 | 0.00 | 0.00 | 1009.1 | |
| 20260509230513 | 84 | 202 | 3.0 | 4.0 | 0.00 | 0.00 | 0.00 | 1009.1 | |
| 20260509230413 | 84 | 225 | 5.0 | 7.0 | 0.00 | 0.00 | 0.00 | 1009.1 | |
| 20260509230313 | 84 | 225 | 5.0 | 8.0 | 0.00 | 0.00 | 0.00 | 1009.2 | |
| 20260509230213 | 85 | 225 | 6.0 | 9.0 | 0.00 | 0.00 | 0.00 | 1009.4 | |
| 20260509230113 | 85 | 225 | 6.0 | 9.0 | 0.00 | 0.00 | 0.00 | 1009.3 | |
| 20260509230013 | 85 | 225 | 3.0 | 6.0 | 0.00 | 0.00 | 0.00 | 1009.3 | |
| 20260509225013 | 86 | 202 | 6.0 | 9.0 | 0.00 | 0.00 | 0.00 | 1009.3 | |
| 20260509224913 | 86 | 225 | 6.0 | 9.0 | 0.00 | 0.00 | 0.00 | 1009.3 | |
| 20260509224814 | 86 | 225 | 4.0 | 7.0 | 0.00 | 0.00 | 0.00 | 1009.3 | |
| 20260509224713 | 87 | 225 | 3.0 | 6.0 | 0.00 | 0.00 | 0.00 | 1009.4 | |
| 20260509224613 | 87 | 225 | 6.0 | 10.0 | 0.00 | 0.00 | 0.00 | 1009.3 | |
| 20260509224513 | 87 | 270 | 3.0 | 5.0 | 0.00 | 0.00 | 0.00 | 1009.4 | |
| 20260509224413 | 87 | 180 | 3.0 | 5.0 | 0.00 | 0.00 | 0.00 | 1009.3 | |
| 20260509224013 | 88 | 202 | 5.0 | 7.0 | 0.00 | 0.00 | 0.00 | 1009.5 | |
| 20260509223013 | 88 | 180 | 3.0 | 6.0 | 0.00 | 0.00 | 0.00 | 1009.7 | |
| 20260509222913 | 88 | 202 | 3.0 | 5.0 | 0.00 | 0.00 | 0.00 | 1009.5 | |
| 20260509222813 | 87 | 225 | 3.0 | 6.0 | 0.00 | 0.00 | 0.00 | 1009.5 | |
| 20260509222713 | 88 | 247 | 4.0 | 8.0 | 0.00 | 0.00 | 0.00 | 1009.5 | |
| 20260509222613 | 88 | 202 | 5.0 | 7.0 | 0.00 | 0.00 | 0.00 | 1009.6 | |
| 20260509222213 | 88 | 157 | 2.0 | 3.0 | 0.00 | 0.00 | 0.00 | 1009.5 | |
| 20260509221513 | 88 | 202 | 4.0 | 8.0 | 0.00 | 0.00 | 0.00 | 1009.6 | |
| 20260509221113 | 87 | 157 | 2.0 | 4.0 | 0.00 | 0.00 | 0.00 | 1009.7 | |
| 20260509221013 | 87 | 180 | 2.0 | 3.0 | 0.00 | 0.00 | 0.00 | 1009.6 | |
| 20260509220613 | 87 | 225 | 1.0 | 3.0 | 0.00 | 0.00 | 0.00 | 1009.7 | |
| 20260509215913 | 87 | 225 | 5.0 | 9.0 | 0.00 | 0.00 | 0.00 | 1009.7 | |
| 20260509215213 | 87 | 270 | 2.0 | 3.0 | 0.00 | 0.00 | 0.00 | 1009.9 | |
| 20260509215113 | 87 | 180 | 4.0 | 4.0 | 0.00 | 0.00 | 0.00 | 1009.9 | |
| 20260509214413 | 88 | 225 | 5.0 | 9.0 | 0.00 | 0.00 | 0.00 | 1010.0 | |
| 20260509214313 | 88 | 180 | 3.0 | 4.0 | 0.00 | 0.00 | 0.00 | 1010.0 | |
| 20260509214213 | 88 | 202 | 2.0 | 3.0 | 0.00 | 0.00 | 0.00 | 1009.9 | |
| 20260509213813 | 87 | 202 | 4.0 | 7.0 | 0.00 | 0.00 | 0.00 | 1010.2 | |
| 20260509213713 | 87 | 180 | 3.0 | 7.0 | 0.00 | 0.00 | 0.00 | 1010.1 | |
| 20260509213613 | 87 | 202 | 4.0 | 7.0 | 0.00 | 0.00 | 0.00 | 1010.3 | |
| 20260509213213 | 87 | 225 | 2.0 | 4.0 | 0.00 | 0.00 | 0.00 | 1010.3 | |
| 20260509213113 | 87 | 180 | 3.0 | 4.0 | 0.00 | 0.00 | 0.00 | 1010.3 | |
| 20260509213013 | 87 | 157 | 2.0 | 3.0 | 0.00 | 0.00 | 0.00 | 1010.2 | |
| 20260509212913 | 87 | 180 | 5.0 | 8.0 | 0.00 | 0.00 | 0.00 | 1010.3 | |
| 20260509212513 | 86 | 292 | 2.0 | 4.0 | 0.00 | 0.00 | 0.00 | 1010.4 | |
| 20260509212413 | 86 | 292 | 2.0 | 4.0 | 0.00 | 0.00 | 0.00 | 1010.2 | |
| 20260509212013 | 86 | 225 | 2.0 | 6.0 | 0.00 | 0.00 | 0.00 | 1010.3 | |
| 20260509211614 | 86 | 202 | 2.0 | 3.0 | 0.00 | 0.00 | 0.00 | 1010.3 | |
| 20260509211513 | 86 | 135 | 3.0 | 7.0 | 0.00 | 0.00 | 0.00 | 1010.4 | |
| 20260509210513 | 86 | 180 | 4.0 | 7.0 | 0.00 | 0.00 | 0.00 | 1010.5 | |
| 20260509210413 | 86 | 225 | 3.0 | 6.0 | 0.00 | 0.00 | 0.00 | 1010.4 | |
| 20260509205713 | 84 | 180 | 4.0 | 9.0 | 0.00 | 0.00 | 0.00 | 1010.5 | |
| 20260509204713 | 85 | 315 | 3.0 | 4.0 | 0.00 | 0.00 | 0.00 | 1010.8 | |
| 20260509203413 | 86 | 225 | 3.0 | 6.0 | 0.00 | 0.00 | 0.00 | 1010.7 | |
| 20260509203314 | 85 | 180 | 3.0 | 5.0 | 0.00 | 0.00 | 0.00 | 1010.9 | |
| 20260509202613 | 84 | 225 | 3.0 | 7.0 | 0.00 | 0.00 | 0.00 | 1010.8 | |
| 20260509202213 | 84 | 225 | 2.0 | 4.0 | 0.00 | 0.00 | 0.00 | 1010.8 | |
| 20260509201813 | 83 | 157 | 3.0 | 6.0 | 0.00 | 0.00 | 0.00 | 1010.9 | |
| 20260509195913 | 83 | 225 | 2.0 | 4.0 | 0.00 | 0.00 | 0.00 | 1010.8 | |
| 20260509195813 | 83 | 157 | 2.0 | 4.0 | 0.00 | 0.00 | 0.00 | 1010.9 | |
| 20260509195113 | 81 | 225 | 2.0 | 4.0 | 0.00 | 0.00 | 0.00 | 1010.9 | |
| 20260509195013 | 81 | 157 | 2.0 | 4.0 | 0.00 | 0.00 | 0.00 | 1011.1 | |
| 20260509194613 | 80 | 45 | 1.0 | 1.0 | 0.00 | 0.00 | 0.00 | 1011.2 | |
| 20260509194513 | 80 | 112 | 4.0 | 6.0 | 0.00 | 0.00 | 0.00 | 1011.0 | |
| 20260509194413 | 80 | 225 | 3.0 | 5.0 | 0.00 | 0.00 | 0.00 | 1011.4 | |
| 20260509192513 | 78 | 315 | 1.0 | 2.0 | 0.00 | 0.00 | 0.00 | 1011.5 | |
| 20260509191513 | 78 | 225 | 3.0 | 4.0 | 0.00 | 0.00 | 0.00 | 1011.5 | |
| 20260509190813 | 78 | 22 | 2.0 | 3.0 | 0.00 | 0.00 | 0.00 | 1011.4 | |
| 20260509190413 | 77 | 225 | 1.0 | 2.0 | 0.00 | 0.00 | 0.00 | 1011.4 | |
| 20260509190013 | 77 | 180 | 3.0 | 5.0 | 0.00 | 0.00 | 0.00 | 1011.6 | |
| 20260509185913 | 77 | 270 | 4.0 | 6.0 | 0.00 | 0.00 | 0.00 | 1011.5 | |
| 20260509185813 | 77 | 157 | 4.0 | 6.0 | 0.00 | 0.00 | 0.00 | 1011.7 | |
| 20260509185413 | 77 | 225 | 3.0 | 4.0 | 0.00 | 0.00 | 0.00 | 1011.6 | |
| 20260509184113 | 75 | 180 | 2.0 | 5.0 | 0.00 | 0.00 | 0.00 | 1011.5 | |
| 20260509184013 | 75 | 202 | 3.0 | 4.0 | 0.00 | 0.00 | 0.00 | 1011.7 | |
| 20260509182413 | 75 | 202 | 3.0 | 6.0 | 0.00 | 0.00 | 0.00 | 1011.8 | |
| 20260509180213 | 74 | 180 | 2.0 | 4.0 | 0.00 | 0.00 | 0.00 | 1012.3 | |
| 20260509175813 | 74 | 90 | 1.0 | 2.0 | 0.00 | 0.00 | 0.00 | 1012.1 | |
| 20260509175713 | 74 | 202 | 2.0 | 4.0 | 0.00 | 0.00 | 0.00 | 1012.2 | |
| 20260509175613 | 74 | 202 | 1.0 | 4.0 | 0.00 | 0.00 | 0.00 | 1012.1 | |
| 20260509174013 | 74 | 180 | 2.0 | 4.0 | 0.00 | 0.00 | 0.00 | 1012.1 | |
| 20260509173613 | 74 | 315 | 1.0 | 2.0 | 0.00 | 0.00 | 0.00 | 1012.2 | |
| 20260509173513 | 74 | 45 | 1.0 | 2.0 | 0.00 | 0.00 | 0.00 | 1012.1 | |
| 20260509173413 | 73 | 67 | 2.0 | 2.0 | 0.00 | 0.00 | 0.00 | 1012.1 | |
| 20260509172113 | 71 | 157 | 1.0 | 2.0 | 0.00 | 0.00 | 0.00 | 1012.2 | |
| 20260509172013 | 71 | 90 | 2.0 | 3.0 | 0.00 | 0.00 | 0.00 | 1012.1 | |
| 20260509171913 | 71 | 315 | 1.0 | 1.0 | 0.00 | 0.00 | 0.00 | 1012.2 | |
| 20260509171814 | 71 | 270 | 1.0 | 2.0 | 0.00 | 0.00 | 0.00 | 1012.1 | |
| 20260509171713 | 71 | 180 | 1.0 | 2.0 | 0.00 | 0.00 | 0.00 | 1012.1 |